Wind_Speed
21 21 21 21 21 19 18 16 14 13 12 11 10 9 8 8 7 8 7 7 8 8 7 7 7 8 9 9 8 7 6 5 6 6 4 2 3 7 9 10 10 9 10 10 10 9 9 10 9 5 8 12 14 15 14 17 18 10 3 1 2 2 3 5 7 7 4 4 5 5 2 1 0 5 6 5 8 13 7 9 16 13 13 21 22 27 31 28
21 21 21 21 20 19 18 16 14 13 12 11 10 9 9 8 8 8 8 8 8 8 7 7 7 8 9 9 7 6 5 3 4 3 1 3 1 3 6 7 8 9 10 10 9 10 9 8 7 6 10 15 15 15 11 12 17 10 3 2 3 4 4 7 9 9 6 6 6 7 5 2 2 3 3 4 5 10 9 12 19 19 20 23 25 31 30 30
20 20 20 20 20 20 18 16 14 12 11 10 10 10 9 9 9 9 9 9 9 8 7 7 7 9 9 8 7 6 5 4 4 2 2 3 2 1 1 4 6 8 9 9 9 11 11 8 8 10 14 15 15 17 13 10 13 11 6 1 4 5 3 8 12 10 10 12 9 7 6 4 4 2 3 5 3 4 5 7 16 22 25 29 31 33 32 32
19 20 20 20 20 19 18 16 14 12 11 10 10 10 9 9 9 9 10 10 9 8 7 7 8 8 8 8 7 7 7 5 2 1 1 3 3 2 1 1 3 6 8 9 10 12 12 8 8 12 12 10 12 12 10 12 12 10 9 3 5 7 3 8 13 12 14 15 12 10 7 4 4 5 3 6 6 2 1 6 18 26 29 32 32 35 34 32
19 19 19 20 19 19 18 17 14 12 11 10 10 10 9 9 9 9 9 10 10 9 8 7 8 8 7 7 6 7 7 3 1 1 2 5 5 3 3 1 2 6 8 11 12 12 11 8 8 10 7 6 9 6 8 14 13 6 6 9 11 11 4 9 16 14 15 14 12 9 6 5 6 6 4 5 4 4 5 10 22 30 32 33 33 35 35 33
19 19 19 19 19 19 18 17 15 12 11 10 10 9 10 10 10 10 10 11 10 9 7 6 7 6 5 6 7 7 4 1 3 4 3 6 8 5 2 1 3 7 10 13 13 11 9 6 6 8 4 4 8 6 15 15 14 7 2 10 15 15 10 13 17 15 14 13 12 8 6 7 5 4 4 6 5 7 7 10 22 29 31 32 31 33 34 33
19 19 19 19 19 19 18 17 16 13 11 9 9 9 10 10 11 11 11 12 11 8 7 6 6 4 5 7 7 7 6 6 6 4 4 6 9 6 1 2 5 8 12 14 12 9 6 6 7 9 6 4 8 6 9 6 17 13 2 7 11 16 16 17 18 14 13 13 12 11 8 5 4 3 1 6 8 6 3 7 20 25 28 30 30 30 30 31
19 19 19 19 18 18 18 17 16 14 11 9 9 9 9 10 11 12 12 12 11 8 6 5 4 3 5 6 8 9 8 7 3 3 4 8 10 5 2 3 6 9 13 13 10 6 4 7 8 9 5 4 9 5 6 11 10 8 7 8 9 14 18 19 18 14 13 12 12 12 8 4 5 3 1 7 9 6 1 6 18 23 26 29 29 29 27 29
20 20 19 19 18 18 17 17 17 15 12 9 8 8 8 9 11 12 12 12 10 8 5 4 3 4 5 6 9 8 5 5 1 2 5 10 8 3 3 5 6 10 13 11 7 3 4 6 7 7 6 8 11 8 4 5 2 5 11 12 11 12 16 18 15 14 14 13 14 9 5 3 4 3 4 9 10 6 3 7 16 22 26 27 27 28 27 28
21 20 20 19 19 18 18 17 16 15 13 9 8 8 8 9 10 11 12 12 10 7 5 4 4 6 6 8 8 3 4 5 1 1 7 10 5 4 5 7 8 10 13 8 5 3 4 6 9 13 14 12 9 10 9 2 3 7 15 13 13 14 16 16 13 14 12 11 14 7 4 3 3 3 3 7 11 9 8 9 14 18 24 26 25 27 27 27
21 21 21 20 20 19 18 17 16 15 14 10 9 8 8 9 9 10 11 11 9 6 6 5 6 8 9 11 7 3 4 4 3 2 6 8 2 4 5 8 9 9 11 7 5 3 8 11 14 17 12 8 10 13 10 4 7 15 19 11 8 9 8 11 10 14 10 7 12 7 5 2 4 2 6 8 12 12 13 12 12 16 21 23 23 24 25 25
22 21 20 20 20 19 19 18 16 15 14 12 9 8 9 9 9 9 10 10 8 6 6 6 8 10 12 14 10 5 5 3 4 2 5 6 5 5 5 7 7 6 5 4 5 7 11 13 14 15 10 6 9 7 8 5 9 18 17 8 3 2 1 7 6 11 10 5 12 8 4 1 0 6 10 8 12 13 15 14 14 15 16 20 22 21 22 24
22 21 20 20 20 20 19 18 17 15 14 12 9 9 9 9 9 9 9 9 7 7 8 7 9 12 12 11 6 2 4 4 5 3 5 5 4 4 5 5 3 3 2 6 8 8 9 10 13 17 11 7 5 4 13 8 11 13 7 6 3 2 3 9 6 7 7 4 14 9 3 4 5 12 13 8 12 15 15 15 17 17 15 18 20 19 19 24
22 21 21 20 19 19 19 18 17 15 14 12 10 8 9 9 9 9 9 8 7 8 9 8 10 12 11 8 3 1 3 3 5 5 6 5 0 1 1 3 1 1 3 6 7 8 8 9 13 16 10 5 6 8 13 7 8 7 2 3 3 2 3 8 6 6 3 4 16 10 1 5 7 12 15 11 12 16 16 16 18 20 18 17 20 19 18 22
22 22 21 20 19 18 19 19 17 15 14 12 10 8 8 9 10 10 10 9 9 9 8 9 10 11 11 10 4 3 4 5 8 7 6 6 4 3 3 4 2 1 1 6 7 8 7 8 11 12 8 6 8 7 6 4 0 4 4 1 1 3 3 4 5 9 4 4 14 9 1 6 6 9 13 13 14 17 18 17 19 19 19 19 19 20 18 20
22 22 21 20 18 17 18 18 17 15 13 12 10 8 8 8 10 11 11 11 10 9 8 9 8 8 9 8 4 4 7 8 9 6 5 6 7 7 4 4 5 2 1 3 5 6 5 8 11 9 8 6 4 2 4 5 4 1 3 4 2 3 1 3 4 11 8 3 9 6 1 3 5 8 10 13 18 20 17 16 18 18 17 19 20 20 20 20
22 21 20 20 18 17 17 17 17 15 13 12 9 7 8 8 10 12 12 12 11 11 11 10 9 9 8 6 5 5 8 8 7 6 4 4 6 7 6 8 7 3 4 3 3 6 7 8 6 5 4 2 2 4 3 3 4 4 2 3 3 5 4 3 2 9 10 3 7 7 4 4 5 5 10 16 19 19 15 13 16 18 18 19 19 20 21 21
22 21 20 19 17 16 16 16 16 14 12 10 6 7 8 9 10 11 12 11 11 11 10 9 8 6 6 7 5 5 6 7 8 7 4 3 5 6 6 10 8 4 6 5 6 9 8 6 2 1 3 1 1 4 3 4 4 4 3 2 3 5 7 6 3 7 10 6 6 7 6 9 7 3 10 16 17 16 14 12 11 16 20 20 20 20 20 21
22 21 20 19 17 15 15 15 15 13 11 6 5 8 8 10 10 5 5 8 10 9 7 7 7 2 6 10 10 7 6 7 7 8 7 3 5 8 5 7 9 7 6 3 5 8 6 3 1 1 3 4 5 6 7 9 6 6 5 4 5 6 6 6 3 5 11 8 5 8 7 8 5 4 7 13 15 13 12 8 6 12 18 20 20 20 20 21
22 20 20 18 16 14 13 14 13 12 9 2 4 9 8 10 8 2 7 14 16 13 13 14 14 14 16 18 16 9 7 10 8 8 9 5 6 8 7 7 9 7 5 3 2 4 6 2 2 5 7 9 10 9 10 11 9 8 6 3 6 6 4 5 4 4 10 7 5 9 7 4 5 5 5 11 13 9 7 5 5 10 15 18 20 19 20 23
22 21 20 18 16 13 11 12 10 8 6 1 4 9 8 9 6 5 14 19 20 18 18 20 19 22 23 22 18 6 10 11 10 8 7 8 7 6 7 8 4 4 6 5 2 1 4 4 7 11 12 13 11 8 9 11 10 10 7 4 4 4 5 7 4 5 8 5 3 6 5 4 5 6 6 9 8 5 7 6 6 11 14 17 18 17 18 22
22 21 20 18 15 12 10 9 7 5 4 0 3 10 12 12 7 9 15 16 22 24 20 19 20 23 23 22 17 11 9 7 10 11 8 10 11 7 6 6 4 4 4 3 1 2 1 5 12 14 12 11 9 8 10 11 9 7 4 2 2 3 4 4 1 5 6 2 2 4 5 3 2 3 4 6 7 5 7 6 4 9 13 15 16 15 15 20
23 22 21 19 16 12 8 7 7 5 4 1 3 12 15 12 7 10 13 11 19 24 20 17 18 20 21 20 14 15 17 11 11 14 12 12 14 12 7 5 4 4 2 2 4 3 2 8 16 15 10 9 10 10 9 5 2 2 2 1 4 3 4 2 1 5 4 1 2 5 5 2 2 2 2 3 7 6 5 4 2 4 9 11 11 12 15 19
24 23 21 20 17 12 7 7 7 6 4 1 5 10 12 10 8 14 14 6 9 16 15 13 15 18 18 14 10 15 20 14 11 13 16 16 15 12 9 7 5 4 5 5 6 6 8 14 17 11 10 11 10 7 3 1 3 3 3 3 4 5 4 3 3 6 4 1 3 7 5 3 1 1 1 1 4 6 4 3 2 2 5 5 6 10 15 16
24 23 22 20 19 14 8 7 7 5 4 1 4 5 7 9 9 13 10 3 4 8 8 7 12 15 15 10 9 15 16 14 14 13 18 21 18 9 6 8 6 4 7 8 7 7 12 20 16 6 9 12 8 6 3 3 4 4 3 6 7 9 5 6 8 7 5 1 3 5 5 3 4 2 3 2 2 3 0 2 3 1 3 5 7 11 13 13
24 24 22 21 21 16 8 5 6 6 4 2 3 4 4 4 7 10 5 3 3 5 3 5 9 9 11 13 14 11 6 9 16 15 17 21 21 12 4 5 5 5 7 6 4 3 7 13 9 5 5 5 3 4 3 4 3 2 4 7 6 4 4 10 11 7 4 5 5 3 5 2 4 3 5 4 2 1 2 2 2 1 4 5 7 11 12 13
23 23 22 21 21 18 12 7 7 8 6 6 7 7 6 4 7 8 2 3 3 4 3 5 7 7 9 13 16 9 2 6 9 11 17 21 21 15 7 4 2 4 4 1 2 3 1 3 2 2 1 2 1 2 4 3 4 3 6 5 3 4 8 12 10 5 3 4 2 1 5 3 2 4 4 6 4 3 2 1 1 2 4 5 6 10 12 13
22 22 21 20 19 18 16 12 9 8 6 8 9 8 6 6 7 3 3 2 2 3 3 5 6 7 9 13 19 11 2 4 4 7 19 21 17 11 6 6 4 5 5 2 3 7 1 1 1 3 3 2 2 5 5 1 4 4 8 3 4 4 8 10 8 4 3 4 1 3 3 4 3 5 2 4 4 3 3 3 3 4 4 4 4 8 10 14
22 22 22 20 18 18 16 14 12 8 6 7 8 8 7 6 5 1 4 1 2 2 2 5 5 7 9 11 16 13 4 4 3 9 19 19 15 9 6 9 7 5 7 4 4 7 4 6 6 5 3 3 5 7 4 4 4 5 6 1 3 4 7 8 7 4 3 4 4 6 3 4 2 5 2 1 3 4 4 3 3 5 5 3 5 7 9 15
21 21 22 21 19 17 16 14 10 7 7 7 5 5 4 2 1 4 2 1 2 1 3 5 5 8 10 7 6 10 7 4 5 11 15 14 15 12 8 9 6 3 5 2 3 8 9 12 10 4 4 5 6 5 3 4 5 3 2 4 5 5 5 4 3 4 3 1 5 7 7 5 0 4 3 3 3 4 5 3 3 5 5 6 9 10 12 16
21 20 21 22 20 18 17 11 5 5 6 4 1 3 3 2 3 4 1 2 2 2 2 3 4 8 11 7 4 7 6 4 5 9 9 7 8 8 5 3 3 2 4 4 4 7 6 7 7 4 7 6 2 0 2 3 0 4 3 3 4 4 4 4 4 3 2 4 5 5 6 6 2 4 4 3 2 5 7 5 6 6 7 10 12 13 13 15
22 20 19 20 20 18 15 9 5 7 6 2 1 3 4 3 2 2 3 3 1 2 2 3 5 6 9 8 5 7 5 3 6 7 6 5 4 5 4 4 2 2 3 3 3 6 5 5 4 3 6 5 4 3 4 6 5 6 2 3 4 2 4 3 3 1 2 4 4 4 6 4 1 4 5 3 2 5 7 9 12 13 13 13 14 14 13 14
23 21 19 18 18 15 10 7 7 9 7 4 2 2 5 4 2 5 3 2 1 3 2 3 6 7 9 7 5 8 7 5 7 7 6 6 5 5 6 7 7 4 3 3 1 3 4 5 1 3 1 1 5 3 1 4 4 4 1 2 3 2 1 1 3 2 2 1 3 2 3 2 3 3 4 4 4 7 10 14 17 19 20 18 16 16 14 14
23 21 19 16 12 8 5 5 8 10 8 7 3 4 5 3 4 3 2 3 3 3 2 1 6 7 8 8 6 7 6 5 7 6 5 5 4 4 6 6 7 7 3 1 1 1 1 4 2 2 2 0 3 4 5 2 0 1 3 5 3 3 4 3 3 2 2 1 2 4 3 2 2 3 3 3 5 7 11 16 18 18 20 20 17 16 15 14
22 18 16 12 5 3 1 2 7 9 9 7 4 4 3 4 3 1 2 3 2 3 8 5 6 8 6 7 6 7 8 5 6 6 5 6 5 5 5 6 8 8 3 1 2 2 2 1 4 3 4 5 3 4 5 5 1 3 1 4 1 2 4 2 2 4 4 2 2 4 2 2 2 3 2 3 4 4 6 13 17 16 18 18 18 17 16 15
21 13 9 6 3 3 4 2 5 8 10 7 5 1 4 3 3 3 1 4 3 3 10 10 3 7 5 5 4 6 8 6 6 5 4 6 6 6 6 4 8 11 8 5 3 0 2 1 4 2 1 3 5 4 4 5 2 2 3 1 5 4 6 3 2 1 5 4 1 1 1 3 2 3 4 3 2 1 2 8 13 16 18 18 19 20 17 15
20 12 6 5 4 3 3 3 4 9 9 6 4 4 4 2 3 2 3 8 9 5 5 7 2 3 2 3 3 4 3 4 5 5 4 5 5 5 6 5 7 12 13 8 2 2 4 1 5 1 2 4 1 3 2 2 5 3 1 4 4 1 3 3 1 3 4 3 1 1 1 2 0 2 4 2 1 2 1 4 8 12 17 18 19 20 17 16
21 14 4 3 5 5 4 4 7 9 6 5 1 4 2 2 4 6 9 10 9 5 3 3 3 2 2 1 4 6 3 1 4 5 4 3 4 4 6 5 3 9 14 11 2 1 5 1 7 1 4 2 3 6 5 5 3 4 3 2 1 2 1 1 2 0 2 2 1 2 3 3 3 2 3 4 4 3 3 4 5 7 12 16 18 19 18 16
21 13 3 1 3 5 4 3 8 7 4 3 1 3 2 3 6 12 16 13 6 4 3 3 2 0 2 2 1 4 4 2 4 4 2 3 4 4 5 3 2 10 15 11 4 1 3 4 4 4 2 2 4 5 1 5 6 4 2 3 2 2 2 1 1 2 4 3 2 0 3 3 4 4 5 6 7 5 5 4 4 5 8 12 15 18 18 17
16 9 3 2 1 3 3 4 6 5 3 1 3 3 4 5 8 16 20 14 6 4 3 2 2 3 1 2 1 2 3 2 2 3 3 3 4 3 4 2 4 7 8 5 5 2 3 4 1 6 3 4 2 0 4 3 1 3 3 4 2 1 0 1 1 0 4 4 3 2 1 4 5 3 6 8 7 6 7 5 4 6 7 9 10 14 17 16
12 6 1 5 4 1 3 5 3 2 2 2 4 2 5 6 7 14 22 20 12 7 5 3 1 3 2 0 1 2 2 2 2 3 3 3 3 3 5 6 5 5 4 5 4 3 2 3 3 2 4 3 2 4 4 6 5 4 2 1 2 1 2 3 3 3 2 4 4 4 2 5 5 2 4 7 6 5 8 8 6 7 9 9 9 10 13 14
10 4 3 9 7 2 4 4 1 3 2 2 4 4 8 9 7 12 18 19 12 7 5 2 2 2 2 1 1 2 2 2 3 3 3 5 5 5 7 12 10 7 6 3 1 2 3 3 4 1 1 3 5 3 3 3 2 3 2 2 4 3 3 4 1 3 1 3 1 3 2 4 4 2 4 5 6 8 11 12 9 8 9 9 8 7 9 11
13 8 3 8 10 8 5 1 3 2 3 6 8 10 13 11 8 11 12 10 8 4 3 3 1 2 3 1 1 2 2 3 3 3 4 6 5 3 4 11 9 8 6 2 0 1 3 4 4 1 3 3 4 5 7 6 5 4 2 1 2 1 2 5 4 2 2 2 1 3 1 4 5 3 5 6 8 10 12 13 12 11 10 9 7 6 7 10
16 12 5 1 9 14 7 1 3 3 3 6 7 10 14 12 10 13 10 6 5 1 1 3 3 3 3 4 4 3 2 2 3 3 3 4 6 8 2 5 4 5 4 3 4 2 1 2 4 3 4 6 6 6 7 6 3 2 2 4 1 2 5 5 2 3 3 1 1 4 2 5 5 1 5 6 7 8 9 13 13 12 12 11 9 7 7 8
13 8 8 11 1 14 10 1 1 2 4 6 7 9 11 10 11 14 11 9 9 4 2 2 4 5 5 4 5 5 3 4 3 2 2 2 5 8 3 2 2 2 7 13 15 10 4 2 4 5 3 0 1 1 2 2 2 1 2 4 3 3 6 5 2 5 2 2 2 5 4 4 3 2 5 4 5 6 7 11 13 12 13 12 11 10 8 7
8 3 6 13 7 3 4 7 9 5 4 5 7 8 7 5 8 12 10 7 9 7 5 4 3 5 5 3 3 4 3 3 2 3 4 3 4 6 6 5 2 3 11 19 19 10 4 2 4 7 7 6 6 6 5 3 1 2 3 2 1 2 4 6 5 3 3 2 2 3 6 4 3 5 6 4 5 6 5 9 12 13 14 13 12 10 8 6
4 2 4 8 7 6 9 12 13 9 7 6 4 6 8 6 6 10 9 6 9 8 4 3 2 3 3 3 2 2 4 5 4 5 6 5 4 4 8 9 3 4 10 15 12 6 4 1 3 7 8 8 8 6 5 2 2 3 4 3 0 2 3 6 5 4 5 5 1 5 5 7 7 7 7 6 6 5 6 10 14 16 16 14 12 10 8 7
4 4 7 6 3 3 6 9 12 11 10 9 4 5 8 8 5 7 6 7 12 11 4 2 3 6 7 5 3 2 3 4 4 4 5 6 5 5 8 7 6 7 4 3 5 5 6 2 4 6 5 5 7 5 3 1 2 3 3 3 2 2 4 5 4 6 6 6 4 4 6 7 7 7 8 9 9 10 12 15 17 17 16 14 13 11 11 10
5 4 7 8 5 5 7 12 15 12 9 8 4 4 6 6 6 6 5 5 6 5 3 3 6 8 9 7 4 1 1 1 2 2 2 3 5 5 4 4 7 13 10 3 2 2 5 1 3 5 3 1 4 5 3 3 1 1 1 4 3 3 5 5 5 6 6 6 7 8 9 7 7 8 10 13 16 17 16 16 16 16 16 15 15 14 13 12
6 4 8 11 8 8 10 12 11 8 7 6 3 4 5 6 8 8 8 7 5 3 5 7 9 9 7 2 3 4 2 4 3 1 0 1 3 3 2 2 5 10 8 3 3 3 3 2 2 4 4 3 2 4 6 4 2 2 4 6 4 1 4 4 4 5 5 4 5 8 9 3 4 9 12 14 17 15 12 13 15 17 18 16 15 15 15 14
2 2 6 7 5 5 7 8 8 5 5 4 2 4 7 8 10 10 10 10 5 5 6 8 10 9 6 6 7 3 1 6 7 2 2 0 1 1 1 1 3 6 6 4 2 2 3 2 1 5 5 3 3 5 5 5 7 6 6 6 5 1 4 2 3 3 5 7 6 7 6 3 4 7 9 10 12 11 11 14 16 17 17 16 14 13 13 14
5 4 3 2 2 3 4 6 6 4 3 4 7 9 9 10 12 11 7 8 8 11 11 9 9 6 5 8 7 6 7 2 2 1 3 4 6 4 3 6 7 4 2 2 2 1 3 4 2 4 4 3 4 3 5 6 7 5 4 2 1 0 1 2 2 0 3 7 6 5 6 6 4 8 7 6 9 10 13 16 17 17 16 14 11 8 8 12
Wind_Direction
19 17 15 13 11 10 10 10 9 6 4 359 354 350 341 331 323 317 311 306 299 294 295 299 305 303 305 312 319 319 312 297 284 284 286 274 209 213 202 190 188 196 213 221 226 230 233 230 226 233 247 253 250 248 240 221 211 190 173 153 167 212 205 180 177 189 170 168 187 186 257 282 3 347 8 57 25 14 44 143 157 163 156 156 159 155 154 155
17 16 15 13 11 10 10 10 8 6 6 4 1 358 352 343 336 329 321 314 305 301 301 304 307 306 311 320 328 330 325 308 276 258 54 57 96 225 219 202 197 203 213 215 215 220 226 227 236 271 265 256 254 249 241 210 194 176 137 147 200 220 201 182 176 189 171 156 163 151 181 182 111 353 42 98 9 12 53 105 129 133 136 145 153 155 155 157
14 13 13 13 12 10 9 8 6 4 4 5 4 1 359 352 346 341 332 323 315 311 310 311 310 309 317 323 333 342 338 313 279 205 99 44 50 38 236 206 203 208 211 205 203 209 214 223 244 273 275 261 254 244 233 208 193 178 155 138 223 204 188 183 173 186 177 155 152 144 162 151 117 131 116 126 78 34 52 108 129 131 140 145 152 159 159 159
11 10 10 10 10 9 8 7 5 360 357 358 358 357 357 353 349 342 335 328 322 318 316 315 311 313 320 325 338 349 345 329 291 140 84 20 25 35 44 195 208 209 204 197 199 204 212 230 256 282 289 270 270 256 227 212 198 175 170 188 200 166 126 175 161 163 168 158 155 151 154 146 124 127 131 135 113 48 351 145 142 141 147 149 154 161 162 163
10 9 7 7 7 6 6 6 2 356 351 348 349 351 354 353 348 340 332 327 323 320 319 312 311 317 322 329 340 342 352 15 358 340 330 352 357 0 33 35 228 209 196 191 196 202 213 237 268 296 299 271 296 291 266 240 192 146 185 176 162 152 129 168 156 152 162 156 151 151 157 158 143 135 156 166 149 172 159 147 150 149 152 153 158 165 166 167
9 8 6 5 4 4 4 3 1 355 345 341 342 345 349 352 349 341 332 329 325 323 321 312 314 323 330 334 335 334 347 2 309 307 297 337 349 345 1 212 209 200 193 189 195 202 216 250 282 304 295 282 306 284 297 276 174 124 264 170 157 155 148 167 161 153 159 154 149 153 158 152 143 138 175 215 206 168 149 151 156 155 158 158 161 167 171 173
6 6 5 4 2 2 1 0 360 354 344 335 334 338 346 352 352 346 338 335 333 332 326 314 320 333 339 332 329 324 307 297 297 262 262 327 334 320 264 190 192 193 190 187 194 200 224 283 299 305 296 281 291 271 336 9 138 130 176 178 161 154 154 169 164 154 165 166 157 151 151 152 150 121 166 230 217 187 137 150 161 162 164 164 165 168 173 178
4 3 3 2 1 360 358 358 357 355 346 329 325 330 340 349 351 348 342 339 340 340 328 322 335 341 338 332 332 325 311 319 326 212 257 314 314 289 207 180 185 190 186 184 192 203 268 311 307 298 274 256 296 294 66 74 115 127 158 168 147 149 159 169 163 162 178 172 155 150 148 156 171 153 282 229 212 202 166 147 164 165 167 169 171 172 174 179
4 2 0 359 358 358 357 356 354 354 348 328 315 318 330 340 343 346 344 341 344 344 333 332 339 329 331 332 334 331 324 346 37 200 305 321 306 246 177 166 174 185 182 181 194 222 299 319 314 299 283 292 312 326 53 100 190 173 155 150 145 155 163 166 161 163 175 167 156 151 128 116 172 198 271 227 206 192 186 172 168 169 172 173 175 179 180 182
2 0 359 357 355 355 355 354 353 353 349 332 308 304 316 326 333 341 342 343 346 345 340 339 335 330 327 329 334 339 335 331 250 273 338 340 313 200 163 157 161 175 179 184 203 220 298 320 315 305 300 302 322 343 353 49 195 155 139 139 148 158 164 167 165 162 167 168 165 150 102 102 132 169 259 216 192 184 189 186 178 176 177 177 182 186 185 186
359 358 358 356 353 351 351 352 351 350 349 337 308 290 299 311 322 332 338 344 342 339 339 336 330 326 322 321 311 274 323 310 228 301 350 1 19 162 149 152 146 156 180 202 219 268 310 311 312 305 295 310 338 337 342 53 125 134 130 117 126 142 161 173 167 168 170 170 178 150 99 116 85 157 235 195 175 184 193 191 186 179 176 182 189 187 186 191
357 355 356 355 352 349 347 348 348 349 347 338 311 282 286 296 308 320 331 338 332 327 328 331 327 326 325 312 294 293 329 289 245 295 348 11 75 108 115 140 138 146 190 248 276 309 304 299 313 310 290 307 340 335 330 10 132 141 131 103 82 49 252 206 190 185 187 170 175 144 65 270 139 220 231 195 175 187 196 196 192 185 181 188 190 187 190 196
354 353 353 353 351 347 345 345 346 347 343 337 316 283 275 281 296 307 318 326 324 317 313 320 322 324 323 301 284 315 312 274 254 261 320 347 89 92 101 119 125 171 254 303 293 296 290 292 311 312 302 305 330 297 310 329 140 147 122 103 132 12 297 230 227 196 199 175 168 147 36 267 252 233 225 194 183 187 194 200 197 196 194 192 192 194 195 196
352 351 350 350 350 347 343 342 343 344 341 336 318 288 270 274 284 292 304 310 311 309 305 314 321 326 318 285 251 243 260 227 218 239 301 313 71 7 160 140 81 177 270 286 278 286 292 307 313 310 305 292 308 302 313 337 135 141 108 102 144 165 255 232 216 178 172 183 173 148 56 246 267 246 222 201 194 187 188 196 199 201 202 200 197 199 199 194
351 348 348 347 348 346 342 340 341 341 340 333 317 293 274 273 277 283 292 294 298 302 301 307 314 325 315 285 264 225 222 210 222 243 287 281 258 273 240 209 200 119 275 258 271 290 291 310 314 306 299 297 314 317 330 345 122 130 141 233 226 174 253 267 220 188 174 176 175 149 76 243 276 259 222 204 199 194 193 197 201 204 204 204 202 201 198 188
349 346 345 345 346 345 341 339 340 339 338 332 320 302 288 282 282 283 283 285 293 293 294 302 301 319 314 286 279 216 209 224 232 235 254 259 250 256 262 231 213 183 253 256 286 292 279 303 307 292 284 295 319 10 14 356 333 358 167 223 218 152 231 294 240 210 207 146 172 183 269 234 279 263 218 197 197 198 202 206 206 210 210 206 204 201 197 187
347 344 343 343 344 344 341 339 339 338 337 333 326 318 315 310 296 285 281 283 287 286 291 291 285 300 285 258 283 241 211 213 202 180 210 236 233 252 255 223 213 221 244 254 275 263 265 280 283 271 271 276 117 99 45 340 291 292 219 190 197 155 164 211 245 214 209 167 182 210 245 246 289 264 197 191 195 195 205 216 214 217 217 212 207 202 198 196
344 343 341 341 342 344 340 338 338 337 339 337 341 347 335 331 316 287 278 286 292 293 291 271 263 300 277 253 287 264 212 194 177 162 180 217 212 239 248 220 218 231 233 235 235 238 252 264 245 276 307 304 151 122 142 228 225 240 213 159 187 167 177 202 211 195 186 178 186 186 234 259 288 275 186 188 191 194 210 225 227 222 220 216 211 207 203 203
342 342 340 339 341 344 339 337 337 337 343 341 350 4 5 1 351 307 288 303 297 295 292 257 226 236 279 279 297 290 230 188 171 178 195 214 223 232 232 222 233 231 210 206 233 222 214 257 339 321 277 249 221 180 196 227 219 230 227 173 180 190 206 215 228 200 170 165 192 182 212 245 248 228 183 182 189 199 219 233 230 219 220 215 209 209 210 210
341 341 340 338 339 343 340 335 334 338 348 358 2 13 18 6 7 26 335 311 293 289 287 275 257 257 270 281 296 289 204 185 180 195 206 216 228 224 207 212 234 236 215 175 220 222 184 203 262 226 231 231 230 209 211 235 239 255 258 203 196 195 221 237 244 224 164 156 213 197 205 231 203 204 180 179 188 199 216 216 209 218 223 215 208 209 212 214
341 341 340 338 337 341 340 331 329 336 344 344 10 18 18 2 0 341 332 314 299 295 285 278 270 267 270 278 286 249 173 182 197 208 215 214 215 216 204 202 217 244 240 213 220 270 164 201 239 227 227 230 231 213 214 237 236 244 245 202 204 194 221 240 218 189 162 149 241 191 194 234 196 178 183 179 175 187 196 191 214 230 235 227 219 218 215 214
340 341 340 337 335 338 338 326 313 317 335 269 14 14 8 356 348 332 331 312 301 299 287 280 272 267 266 269 268 239 218 207 199 208 212 208 208 211 203 186 197 231 234 196 196 335 163 240 245 233 231 238 246 234 227 235 218 222 229 178 261 228 215 266 73 143 156 141 266 169 158 219 189 154 174 160 148 171 193 187 210 230 246 248 241 234 214 199
339 339 338 335 333 335 332 310 289 292 305 200 15 11 9 1 353 336 328 301 295 296 284 271 259 255 254 256 255 244 243 223 197 209 206 204 206 209 204 183 215 254 266 170 172 194 214 246 247 238 231 241 256 248 230 236 224 235 235 197 271 229 176 271 350 135 141 91 162 136 112 41 22 63 67 127 148 148 161 167 173 240 260 258 249 234 203 178
338 337 336 333 330 332 326 292 280 285 279 286 11 14 20 18 10 347 331 292 286 292 281 257 242 244 242 246 250 234 228 216 214 211 197 203 205 204 209 199 211 255 252 226 199 206 227 242 247 236 217 227 246 257 246 287 306 289 233 201 251 241 199 198 154 130 113 29 126 108 72 354 323 129 44 356 127 110 115 125 97 281 261 235 219 204 188 170
338 337 334 331 328 329 323 285 274 273 263 341 5 360 13 14 7 354 339 314 283 286 288 239 225 236 231 232 241 223 214 220 236 220 198 205 204 199 213 201 201 241 247 241 223 223 239 246 246 210 198 216 232 263 267 227 260 309 262 224 240 248 221 142 129 120 110 196 209 118 81 304 281 212 211 250 64 80 91 73 80 280 245 217 208 189 178 163
339 337 334 330 327 328 324 292 269 268 266 289 297 295 327 352 357 346 343 17 313 266 266 187 195 214 217 225 226 205 193 235 241 232 213 208 207 209 225 206 201 240 249 243 228 229 247 248 234 168 186 210 228 265 247 204 202 318 254 221 225 233 164 142 137 124 132 198 225 139 116 235 289 271 213 181 127 198 268 18 71 217 233 219 212 201 192 172
339 338 334 329 328 328 326 312 284 281 284 278 274 276 284 297 324 328 359 33 309 241 178 172 183 190 199 211 202 170 90 240 233 235 217 207 209 211 224 242 232 257 260 35 348 275 249 285 276 135 115 66 37 285 259 220 152 217 248 206 147 104 131 145 137 128 172 187 247 80 109 128 250 257 213 156 152 217 262 319 309 262 230 213 206 210 211 190
340 338 332 326 326 323 318 309 292 291 286 272 270 266 275 298 305 314 79 43 263 188 156 175 180 189 189 192 191 182 150 172 161 223 212 204 205 200 214 238 219 256 264 75 307 278 269 15 212 144 103 90 177 221 230 174 113 228 251 186 114 97 129 140 137 151 159 125 250 290 89 99 242 268 266 144 165 222 234 229 257 265 235 211 196 207 212 192
340 337 330 324 321 314 309 304 296 290 265 260 269 266 277 296 298 33 77 80 200 181 183 165 160 185 180 174 190 201 201 169 170 199 198 199 204 203 231 239 220 249 261 203 223 265 266 256 228 172 156 196 214 223 200 123 129 241 265 270 37 57 108 125 138 151 112 112 203 234 157 119 248 279 293 213 211 218 218 216 231 246 237 198 177 182 181 176
341 337 329 321 317 311 304 303 299 277 251 254 263 258 262 252 73 58 55 239 233 226 149 154 172 172 162 153 197 213 214 228 204 184 192 201 208 217 237 246 231 240 282 273 229 252 261 272 272 231 200 199 202 221 197 167 176 182 325 348 7 25 77 95 110 116 106 227 234 214 175 132 188 274 242 227 231 182 170 178 202 229 230 179 163 159 152 155
341 336 328 319 314 307 302 305 296 252 240 243 228 167 155 108 69 85 168 258 265 220 136 169 194 159 159 164 191 208 212 237 195 167 190 210 210 225 240 267 275 12 338 320 285 280 284 285 279 225 200 197 169 294 301 299 74 96 67 46 41 356 18 37 0 45 122 260 265 187 141 103 101 255 248 244 214 158 157 167 181 206 207 174 161 159 148 147
341 334 327 315 307 304 300 296 270 243 231 207 114 155 138 62 34 175 233 319 331 210 184 195 201 175 179 180 182 197 188 206 203 171 177 198 209 225 208 199 185 50 332 277 286 311 302 264 249 193 200 187 96 29 330 343 30 68 56 50 67 1 358 10 313 308 190 255 269 166 119 85 224 244 249 237 176 172 179 178 176 186 190 176 167 165 157 154
341 333 325 312 307 305 293 276 244 226 224 222 201 133 102 84 221 222 250 322 285 234 215 190 206 187 174 179 205 201 180 196 212 187 172 186 202 226 229 211 175 147 227 230 295 321 310 302 344 94 230 179 97 96 324 333 18 57 129 144 113 117 63 287 273 278 246 267 282 233 103 74 283 275 250 227 196 190 191 185 179 181 183 177 171 167 164 165
342 337 327 318 318 311 277 248 221 209 216 218 180 84 92 144 235 236 235 258 259 270 297 201 211 199 180 194 210 186 180 221 215 180 167 180 199 240 253 232 190 174 189 203 302 246 290 323 329 147 206 69 90 158 164 156 36 263 181 143 130 150 149 195 216 206 224 202 297 326 37 117 221 269 241 195 178 176 184 189 186 184 184 181 177 175 176 181
345 343 333 332 353 12 9 208 207 198 198 192 119 76 144 199 251 237 234 275 311 318 317 302 206 194 206 220 222 194 183 209 211 180 174 187 196 217 228 227 203 183 159 163 235 217 124 267 261 230 177 147 156 203 156 103 48 272 119 78 25 198 149 168 205 166 148 110 4 352 359 187 205 273 286 123 140 154 169 184 186 189 192 187 187 188 190 194
349 353 350 6 65 66 48 103 180 180 181 163 93 110 206 212 223 198 259 317 331 326 328 325 216 177 215 236 246 225 197 192 194 176 192 210 212 222 225 225 196 178 168 173 214 217 90 267 263 282 338 185 175 181 151 123 149 291 46 28 257 195 137 136 298 21 93 91 1 1 328 316 353 318 322 38 76 1 101 160 175 189 194 191 193 196 199 202
353 4 15 44 77 93 62 74 144 165 165 128 105 212 224 235 238 251 320 319 312 313 349 340 312 151 221 253 315 295 227 187 185 179 207 226 230 236 231 240 212 186 177 171 191 189 133 288 273 157 26 292 188 78 23 125 132 110 104 242 254 75 97 111 69 358 55 82 293 346 324 272 5 305 302 333 309 290 231 151 161 180 188 193 198 199 204 210
352 359 11 55 54 69 81 103 142 154 136 84 65 250 245 251 288 319 311 304 311 327 0 306 263 105 77 23 336 325 319 197 208 201 187 205 242 229 202 232 234 168 170 166 165 191 122 57 296 247 106 315 10 48 0 341 55 118 180 230 67 56 330 16 74 62 68 92 233 327 321 241 190 223 240 231 237 226 206 178 152 173 183 191 201 202 205 209
345 352 28 87 31 55 72 125 141 134 93 58 263 264 266 262 285 296 294 293 294 296 281 249 256 30 104 112 349 319 324 313 244 232 171 182 232 235 197 206 139 156 169 159 138 173 112 104 293 289 124 87 19 47 46 324 356 40 20 0 48 136 190 170 116 157 129 134 182 317 332 273 221 211 194 209 223 194 178 186 182 189 184 184 196 201 203 204
341 351 62 129 123 62 78 131 136 117 95 169 216 255 289 291 290 287 289 292 279 264 251 205 329 313 202 104 56 288 296 307 268 268 260 208 217 259 241 194 118 164 175 118 99 115 54 88 193 293 341 67 28 298 166 183 53 49 14 355 5 353 26 87 350 169 126 130 159 140 299 269 256 217 182 198 210 183 166 173 183 185 175 170 181 193 201 202
351 355 106 147 144 137 141 138 150 158 127 232 230 248 280 274 279 284 287 287 277 264 252 201 207 270 264 91 287 293 302 318 321 278 268 250 218 230 232 204 166 165 143 65 74 119 82 93 131 326 359 54 251 249 170 162 157 137 152 176 141 100 76 70 349 314 86 113 149 151 183 262 262 219 181 186 185 172 159 157 166 169 161 161 165 176 192 199
1 351 168 153 148 211 205 160 231 225 178 257 250 254 273 271 269 274 281 286 282 268 269 243 175 253 289 184 189 338 335 312 298 272 303 295 235 210 219 206 178 130 112 89 82 131 114 105 101 81 249 202 243 286 59 92 102 109 147 160 133 118 95 111 182 270 21 49 93 124 126 269 259 201 167 165 165 166 160 156 162 163 157 163 168 168 181 190
343 320 233 182 196 214 210 226 308 270 228 257 255 259 265 265 269 272 278 285 277 276 310 315 339 325 313 322 20 6 332 306 279 258 327 322 280 285 232 195 162 105 99 116 322 26 60 88 88 346 304 303 304 345 20 28 44 57 323 328 108 130 116 133 168 187 70 26 50 83 61 276 267 211 154 147 144 148 158 163 166 165 163 169 175 173 178 185
333 318 330 236 212 206 196 205 256 259 275 267 267 271 265 258 257 258 259 255 247 263 1 294 323 357 337 334 330 304 251 268 282 281 327 325 313 328 325 171 138 97 126 171 163 142 98 110 94 62 5 345 344 358 0 352 17 82 287 321 358 135 109 103 86 63 58 305 123 108 175 253 271 228 137 129 119 124 149 167 172 172 169 172 174 165 165 176
338 319 340 0 286 198 204 245 249 268 309 304 302 292 276 268 261 257 258 249 236 215 160 236 295 313 314 328 315 293 243 216 249 304 307 283 300 310 315 122 99 131 169 168 156 145 145 149 114 106 115 122 280 281 282 292 321 321 315 341 3 89 103 106 75 72 77 295 92 122 188 253 287 201 149 138 130 130 147 166 176 182 177 176 177 168 166 170
2 347 329 346 2 190 258 344 11 1 326 330 316 292 287 292 291 300 308 280 254 240 198 197 253 281 297 319 311 313 312 266 273 316 308 295 278 293 338 15 350 173 154 151 146 130 107 135 132 134 155 180 191 212 211 166 154 276 280 320 29 92 102 106 95 109 165 138 82 182 178 157 198 199 177 177 170 165 169 168 173 182 183 181 179 177 180 181
8 14 3 344 344 2 356 356 6 356 314 321 314 280 304 318 312 329 346 341 322 313 258 209 216 215 248 293 285 300 318 320 333 337 331 331 293 297 358 16 26 139 139 146 144 113 88 129 167 152 169 185 183 210 236 171 153 220 251 282 201 132 101 94 110 176 156 105 323 250 173 158 198 200 184 192 189 186 193 182 180 185 185 183 181 185 189 184
4 337 3 5 322 346 3 335 329 326 313 317 303 266 308 325 323 330 334 338 341 336 310 268 262 234 235 237 210 224 292 309 329 351 0 347 332 337 354 5 17 24 42 163 174 119 105 159 196 163 173 185 172 199 246 207 181 195 216 262 272 130 119 115 153 180 144 129 213 213 158 180 208 193 189 198 190 189 194 191 191 191 188 186 187 195 199 193
12 334 332 351 337 302 304 305 309 312 310 318 311 274 301 317 318 319 317 327 337 336 345 331 291 268 256 240 202 177 301 296 325 1 27 337 337 360 355 342 355 360 2 349 276 68 93 161 203 150 127 184 165 152 119 116 201 256 254 260 260 179 144 139 167 171 135 150 182 154 144 180 199 182 195 202 195 195 194 190 191 190 189 190 194 200 204 201
20 8 327 334 327 301 304 312 316 316 314 321 302 277 304 327 333 338 331 316 305 321 7 358 331 314 297 264 119 105 119 132 133 309 5 44 2 5 15 15 345 342 348 352 324 4 72 168 215 111 84 327 332 78 75 68 73 13 325 320 329 151 143 135 163 153 116 142 166 130 126 164 200 179 188 196 191 188 185 186 191 191 191 195 201 208 212 208
334 328 325 329 314 306 323 325 325 320 306 306 304 316 331 336 344 354 335 318 343 43 24 5 349 341 356 40 62 73 156 143 145 212 274 111 312 257 222 280 320 334 340 345 355 47 89 118 68 69 78 287 313 54 53 36 48 29 338 339 358 125 169 188 212 185 151 153 138 105 118 184 198 163 170 178 170 167 176 185 190 192 194 198 204 212 218 215
299 273 303 352 304 308 341 328 316 313 295 316 340 340 327 325 347 9 348 323 7 35 34 23 6 360 29 30 20 352 338 338 140 10 327 309 312 302 277 289 292 288 287 326 356 87 108 109 128 95 91 269 282 72 74 50 41 351 290 214 164 173 122 60 34 81 161 146 133 136 175 201 171 140 148 158 155 166 181 183 184 189 193 199 203 203 206 208
Height
1524 1523 1522 1520 1519 1517 1516 1515 1515 1514 1513 1512 1511 1511 1510 1509 1509 1508 1507 1506 1506 1505 1505 1505 1504 1503 1503 1502 1502 1502 1501 1501 1500 1500 1499 1499 1499 1500 1501 1502 1502 1503 1504 1505 1506 1506 1507 1507 1508 1509 1510 1510 1510 1508 1509 1510 1510 1513 1517 1522 1524 1524 1521 1516 1516 1516 1513 1513 1513 1512 1513 1514 1514 1512 1510 1510 1511 1510 1509 1508 1510 1512 1512 1513 1515 1517 1520 1523
1525 1524 1522 1521 1519 1518 1517 1516 1515 1514 1513 1512 1511 1511 1510 1509 1508 1507 1507 1506 1505 1504 1504 1504 1503 1503 1502 1502 1501 1501 1500 1500 1500 1499 1499 1499 1499 1499 1500 1500 1501 1502 1503 1504 1505 1505 1505 1505 1506 1508 1508 1507 1507 1506 1507 1508 1508 1510 1516 1520 1520 1518 1513 1507 1508 1508 1508 1510 1510 1510 1512 1512 1514 1512 1510 1511 1512 1511 1510 1510 1511 1513 1514 1516 1517 1519 1521 1523
1526 1524 1523 1521 1520 1518 1517 1516 1515 1514 1513 1513 1512 1511 1510 1509 1508 1507 1506 1505 1504 1504 1503 1503 1503 1502 1501 1501 1501 1500 1500 1500 1499 1499 1499 1498 1498 1498 1499 1499 1500 1501 1501 1503 1503 1504 1504 1503 1505 1506 1506 1504 1504 1505 1505 1506 1506 1507 1512 1518 1515 1510 1508 1506 1506 1507 1506 1507 1507 1509 1510 1511 1512 1511 1510 1511 1512 1512 1512 1512 1512 1512 1514 1516 1517 1519 1521 1523
1526 1524 1523 1521 1520 1519 1517 1516 1515 1514 1513 1513 1512 1511 1510 1509 1508 1507 1506 1505 1504 1503 1503 1502 1502 1501 1501 1501 1501 1501 1500 1499 1498 1498 1498 1498 1498 1498 1498 1498 1498 1499 1500 1501 1502 1502 1502 1503 1504 1504 1504 1503 1501 1502 1502 1503 1504 1504 1508 1512 1508 1505 1507 1506 1505 1506 1505 1505 1506 1508 1509 1510 1511 1511 1511 1511 1514 1514 1512 1512 1511 1511 1514 1515 1517 1519 1520 1523
1526 1524 1523 1521 1520 1519 1517 1516 1515 1514 1513 1512 1511 1510 1510 1509 1508 1506 1505 1504 1503 1503 1502 1502 1501 1501 1501 1500 1501 1500 1500 1502 1499 1497 1498 1497 1498 1497 1497 1497 1498 1499 1500 1501 1501 1501 1502 1502 1503 1502 1503 1502 1500 1501 1499 1497 1499 1502 1503 1502 1501 1503 1506 1505 1503 1505 1505 1505 1506 1508 1509 1510 1509 1510 1511 1511 1513 1514 1512 1511 1511 1511 1512 1514 1516 1518 1520 1522
1526 1524 1523 1521 1520 1519 1517 1516 1515 1514 1513 1512 1511 1510 1509 1508 1507 1506 1505 1504 1503 1502 1502 1501 1501 1501 1501 1500 1501 1500 1501 1503 1499 1496 1497 1497 1497 1496 1496 1497 1497 1498 1499 1500 1500 1501 1501 1502 1503 1502 1502 1501 1500 1500 1496 1492 1494 1501 1504 1500 1499 1500 1501 1503 1502 1504 1505 1505 1506 1507 1509 1510 1510 1510 1511 1511 1511 1511 1511 1512 1512 1512 1512 1514 1515 1517 1519 1521
1526 1524 1523 1521 1520 1518 1517 1516 1514 1513 1512 1511 1510 1509 1508 1507 1506 1505 1504 1503 1502 1502 1501 1501 1501 1501 1501 1500 1500 1500 1499 1499 1496 1496 1497 1496 1496 1496 1496 1497 1497 1498 1499 1500 1500 1501 1501 1501 1502 1502 1503 1503 1500 1499 1497 1491 1489 1498 1504 1501 1500 1499 1498 1500 1502 1503 1504 1504 1504 1506 1508 1509 1510 1511 1511 1510 1509 1510 1511 1512 1512 1513 1513 1514 1515 1517 1518 1520
1525 1524 1522 1521 1519 1518 1517 1515 1514 1513 1512 1511 1510 1509 1508 1507 1506 1505 1503 1503 1502 1501 1501 1501 1501 1501 1500 1500 1499 1499 1498 1496 1496 1496 1497 1496 1496 1496 1496 1496 1496 1498 1498 1500 1500 1501 1501 1501 1502 1502 1503 1502 1499 1499 1498 1496 1495 1497 1501 1501 1500 1499 1498 1499 1502 1503 1504 1504 1504 1505 1507 1509 1510 1511 1511 1510 1509 1509 1510 1511 1512 1513 1514 1514 1515 1516 1517 1519
1525 1523 1522 1520 1519 1517 1516 1515 1513 1512 1511 1510 1509 1508 1507 1506 1505 1504 1503 1502 1502 1501 1501 1500 1501 1500 1500 1500 1499 1499 1497 1496 1496 1496 1496 1496 1495 1495 1495 1495 1496 1497 1498 1500 1500 1501 1501 1500 1501 1501 1502 1500 1498 1499 1497 1501 1503 1497 1497 1500 1500 1499 1498 1500 1502 1503 1503 1504 1504 1505 1508 1509 1510 1511 1510 1508 1508 1509 1510 1511 1512 1513 1513 1513 1514 1515 1516 1518
1525 1523 1521 1520 1518 1517 1515 1514 1513 1511 1510 1509 1508 1508 1507 1506 1505 1504 1503 1502 1501 1501 1500 1500 1500 1500 1500 1500 1500 1499 1496 1495 1495 1496 1496 1495 1494 1495 1495 1495 1496 1497 1498 1499 1500 1500 1500 1500 1500 1500 1500 1498 1497 1498 1497 1500 1501 1496 1497 1500 1499 1499 1499 1500 1501 1502 1503 1504 1503 1505 1508 1509 1509 1511 1510 1507 1507 1508 1509 1510 1511 1511 1512 1512 1514 1514 1515 1517
1524 1523 1521 1519 1518 1516 1515 1513 1512 1511 1510 1508 1508 1507 1506 1505 1504 1503 1502 1502 1501 1500 1500 1500 1500 1500 1499 1499 1499 1498 1495 1494 1495 1495 1496 1495 1494 1495 1495 1496 1496 1497 1498 1499 1499 1499 1500 1500 1500 1500 1500 1498 1497 1497 1496 1498 1497 1496 1498 1502 1503 1502 1501 1501 1501 1502 1503 1504 1503 1504 1507 1509 1509 1510 1508 1505 1506 1507 1508 1509 1509 1510 1511 1511 1512 1513 1514 1515
1524 1522 1520 1519 1517 1515 1514 1513 1511 1510 1509 1507 1507 1506 1505 1504 1504 1503 1502 1501 1501 1500 1500 1500 1500 1499 1498 1497 1497 1496 1494 1494 1495 1495 1495 1496 1495 1495 1496 1496 1497 1497 1498 1498 1498 1498 1499 1500 1500 1501 1499 1498 1498 1498 1496 1497 1498 1497 1497 1504 1509 1507 1506 1503 1502 1503 1502 1502 1503 1503 1510 1511 1510 1507 1503 1503 1505 1506 1507 1508 1508 1509 1509 1510 1511 1512 1513 1514
1523 1522 1520 1518 1517 1515 1513 1512 1510 1509 1508 1507 1506 1505 1504 1504 1503 1503 1502 1501 1501 1500 1500 1500 1499 1498 1498 1496 1494 1494 1494 1494 1495 1495 1495 1496 1496 1496 1496 1496 1497 1497 1497 1497 1497 1498 1499 1499 1499 1499 1498 1497 1498 1498 1496 1495 1499 1500 1499 1505 1512 1514 1511 1504 1503 1504 1502 1502 1501 1504 1515 1514 1507 1503 1500 1502 1504 1505 1506 1506 1507 1508 1508 1509 1510 1510 1511 1512
1523 1521 1519 1517 1516 1514 1512 1511 1509 1508 1507 1506 1504 1504 1503 1503 1502 1502 1501 1501 1501 1500 1500 1499 1499 1498 1497 1495 1493 1494 1494 1493 1494 1494 1495 1495 1495 1495 1496 1496 1496 1497 1497 1497 1497 1498 1498 1498 1498 1496 1497 1497 1496 1496 1495 1495 1498 1503 1506 1508 1513 1519 1514 1503 1503 1505 1503 1504 1501 1505 1517 1513 1503 1499 1499 1501 1503 1504 1505 1505 1505 1506 1506 1508 1508 1509 1510 1511
1522 1520 1518 1517 1515 1513 1512 1510 1508 1507 1506 1505 1503 1503 1502 1502 1502 1501 1501 1500 1500 1500 1499 1499 1498 1498 1496 1494 1492 1493 1493 1493 1493 1493 1494 1494 1494 1495 1495 1495 1496 1496 1497 1498 1497 1498 1498 1498 1498 1496 1496 1496 1496 1498 1499 1499 1498 1501 1511 1515 1514 1516 1513 1505 1503 1503 1504 1503 1501 1506 1514 1511 1501 1497 1497 1500 1502 1503 1504 1504 1504 1504 1505 1506 1507 1508 1509 1510
1521 1519 1518 1516 1514 1513 1511 1509 1507 1506 1505 1503 1503 1502 1501 1501 1501 1500 1500 1499 1500 1500 1499 1499 1498 1498 1497 1493 1492 1492 1492 1493 1492 1493 1494 1494 1494 1494 1494 1495 1496 1496 1497 1498 1497 1497 1498 1497 1497 1496 1495 1496 1498 1501 1504 1506 1504 1501 1507 1514 1514 1514 1516 1511 1503 1499 1501 1502 1503 1507 1510 1509 1502 1495 1496 1499 1501 1503 1503 1503 1503 1504 1505 1505 1506 1507 1508 1510
1520 1518 1517 1515 1514 1512 1510 1508 1507 1505 1504 1503 1502 1501 1501 1501 1500 1500 1499 1499 1499 1499 1499 1498 1497 1498 1495 1492 1492 1491 1491 1492 1492 1493 1493 1493 1494 1494 1495 1495 1495 1497 1497 1497 1498 1497 1497 1497 1497 1497 1496 1497 1498 1502 1511 1515 1512 1506 1505 1510 1510 1511 1515 1513 1505 1499 1499 1502 1504 1507 1508 1507 1501 1495 1495 1498 1500 1502 1503 1503 1503 1504 1504 1504 1505 1506 1507 1508
1519 1517 1516 1514 1513 1511 1509 1508 1506 1504 1503 1502 1502 1501 1501 1500 1499 1498 1498 1498 1498 1498 1498 1497 1497 1499 1496 1491 1491 1490 1490 1491 1491 1491 1493 1493 1493 1494 1495 1495 1495 1496 1496 1496 1497 1496 1497 1496 1496 1499 1498 1500 1500 1504 1514 1514 1507 1505 1505 1508 1509 1509 1510 1507 1502 1497 1497 1502 1504 1508 1511 1506 1501 1498 1496 1497 1500 1501 1501 1502 1503 1503 1503 1504 1504 1505 1506 1506
1518 1516 1515 1513 1512 1510 1509 1507 1505 1503 1503 1502 1502 1501 1500 1499 1498 1497 1497 1498 1497 1497 1497 1495 1495 1498 1495 1489 1489 1490 1490 1491 1490 1491 1492 1492 1493 1494 1494 1495 1495 1495 1495 1497 1496 1494 1496 1497 1499 1503 1503 1501 1500 1502 1506 1502 1499 1501 1502 1504 1506 1508 1507 1500 1497 1493 1493 1502 1505 1507 1510 1506 1503 1502 1499 1499 1500 1501 1501 1502 1503 1503 1502 1503 1503 1504 1504 1505
1517 1515 1514 1512 1511 1509 1508 1506 1504 1503 1502 1502 1502 1501 1500 1499 1498 1497 1497 1496 1495 1494 1494 1493 1492 1492 1491 1487 1488 1490 1489 1490 1491 1490 1491 1492 1492 1493 1493 1494 1494 1494 1495 1496 1497 1494 1495 1501 1504 1503 1500 1497 1494 1495 1497 1495 1496 1498 1499 1502 1502 1504 1504 1496 1494 1492 1492 1501 1505 1503 1505 1505 1504 1502 1500 1500 1501 1501 1501 1502 1502 1501 1501 1501 1502 1502 1502 1503
1516 1514 1512 1511 1509 1508 1507 1506 1504 1503 1502 1502 1502 1501 1501 1501 1501 1500 1497 1492 1491 1491 1490 1490 1490 1489 1487 1486 1487 1489 1489 1489 1489 1489 1490 1491 1491 1492 1492 1492 1494 1496 1495 1494 1496 1494 1496 1504 1501 1495 1491 1489 1488 1490 1492 1493 1495 1497 1498 1499 1500 1502 1501 1493 1492 1492 1491 1499 1504 1502 1504 1506 1503 1502 1501 1500 1501 1501 1500 1501 1502 1500 1500 1500 1500 1501 1501 1501
1515 1513 1511 1510 1508 1507 1506 1505 1503 1502 1502 1502 1502 1502 1501 1502 1503 1502 1499 1493 1487 1486 1487 1486 1487 1487 1484 1484 1486 1488 1489 1488 1488 1488 1489 1490 1491 1491 1491 1492 1494 1496 1492 1492 1498 1500 1503 1503 1493 1485 1484 1484 1486 1487 1489 1491 1492 1493 1494 1495 1497 1498 1497 1493 1492 1493 1493 1500 1505 1504 1506 1507 1504 1502 1501 1500 1500 1500 1500 1501 1502 1501 1500 1499 1499 1499 1500 1500
1514 1512 1510 1509 1507 1506 1505 1504 1503 1501 1501 1501 1501 1501 1501 1501 1501 1501 1500 1496 1487 1482 1483 1483 1483 1484 1482 1482 1484 1486 1487 1486 1486 1486 1487 1489 1489 1489 1490 1491 1494 1494 1493 1495 1500 1505 1508 1498 1483 1479 1482 1485 1487 1486 1486 1488 1487 1488 1491 1493 1494 1493 1495 1496 1496 1497 1497 1499 1504 1505 1507 1508 1506 1504 1502 1502 1501 1500 1502 1502 1502 1502 1500 1499 1498 1498 1499 1499
1513 1510 1509 1507 1506 1505 1503 1503 1501 1501 1501 1501 1501 1501 1500 1500 1500 1499 1498 1496 1490 1480 1477 1479 1480 1481 1480 1480 1482 1483 1484 1484 1483 1483 1486 1488 1487 1488 1489 1489 1493 1495 1494 1494 1497 1502 1501 1486 1475 1477 1481 1484 1487 1485 1485 1488 1489 1488 1488 1490 1491 1489 1491 1493 1495 1497 1500 1502 1501 1504 1514 1516 1509 1508 1507 1503 1502 1502 1503 1503 1502 1502 1499 1498 1497 1496 1498 1498
1512 1510 1508 1505 1504 1503 1502 1502 1500 1500 1500 1500 1501 1500 1500 1500 1498 1499 1497 1497 1495 1482 1475 1477 1478 1478 1478 1479 1481 1480 1481 1482 1480 1482 1483 1484 1485 1487 1487 1487 1491 1494 1492 1492 1495 1498 1491 1477 1474 1479 1480 1482 1485 1485 1484 1486 1492 1491 1487 1484 1484 1484 1486 1490 1494 1499 1508 1514 1503 1501 1522 1527 1513 1509 1511 1506 1504 1505 1504 1504 1503 1501 1499 1498 1497 1496 1498 1499
1511 1509 1506 1505 1503 1501 1501 1500 1499 1500 1499 1500 1500 1498 1500 1499 1497 1498 1496 1502 1502 1483 1476 1478 1477 1477 1476 1478 1479 1479 1484 1482 1477 1480 1481 1481 1483 1484 1486 1486 1486 1489 1488 1487 1489 1489 1481 1472 1472 1477 1479 1481 1484 1484 1481 1482 1491 1495 1486 1478 1478 1480 1484 1489 1494 1500 1512 1515 1502 1497 1516 1529 1519 1511 1510 1508 1508 1508 1506 1505 1503 1501 1500 1498 1497 1496 1497 1499
1509 1508 1506 1504 1502 1500 1500 1498 1499 1499 1498 1499 1498 1498 1499 1497 1498 1497 1498 1514 1508 1481 1475 1478 1475 1476 1474 1475 1476 1480 1488 1483 1476 1479 1478 1479 1482 1481 1486 1487 1485 1486 1481 1483 1491 1485 1476 1474 1474 1475 1477 1481 1485 1486 1480 1478 1490 1493 1480 1474 1477 1479 1484 1490 1493 1499 1503 1503 1500 1497 1504 1521 1526 1514 1507 1508 1510 1510 1507 1505 1503 1501 1500 1499 1498 1496 1496 1498
1508 1506 1504 1503 1502 1500 1499 1498 1498 1497 1497 1498 1496 1498 1498 1496 1499 1495 1503 1521 1503 1474 1473 1475 1472 1474 1472 1474 1475 1477 1481 1478 1478 1480 1476 1478 1480 1479 1484 1483 1483 1484 1477 1485 1498 1485 1473 1477 1477 1475 1479 1483 1483 1481 1476 1476 1486 1484 1473 1472 1474 1475 1482 1487 1492 1497 1497 1500 1509 1504 1500 1519 1528 1512 1504 1507 1508 1510 1508 1505 1503 1501 1500 1499 1498 1497 1496 1498
1507 1505 1503 1502 1501 1499 1498 1497 1497 1496 1497 1495 1495 1497 1495 1497 1497 1495 1509 1516 1489 1469 1473 1473 1473 1474 1471 1474 1475 1474 1476 1476 1478 1479 1475 1478 1479 1478 1481 1479 1478 1481 1476 1481 1491 1482 1472 1472 1471 1472 1478 1480 1476 1472 1470 1473 1480 1475 1469 1471 1471 1473 1480 1486 1492 1496 1498 1506 1513 1505 1500 1516 1526 1513 1506 1508 1506 1507 1507 1504 1503 1501 1500 1499 1498 1497 1497 1498
1505 1503 1501 1499 1498 1498 1496 1496 1495 1495 1495 1494 1495 1495 1495 1497 1497 1506 1521 1509 1481 1473 1473 1472 1473 1472 1472 1476 1477 1475 1475 1475 1475 1475 1476 1477 1477 1476 1476 1475 1474 1478 1478 1478 1481 1478 1470 1467 1467 1468 1471 1470 1468 1468 1467 1469 1472 1470 1471 1475 1476 1477 1480 1486 1492 1493 1503 1511 1505 1499 1498 1506 1520 1516 1506 1505 1503 1502 1503 1504 1503 1501 1500 1499 1498 1498 1498 1499
1503 1502 1499 1497 1496 1496 1494 1495 1494 1494 1494 1494 1494 1494 1495 1498 1501 1517 1520 1492 1476 1478 1473 1472 1474 1470 1472 1477 1478 1477 1475 1475 1472 1474 1478 1477 1477 1477 1476 1478 1478 1481 1485 1483 1480 1475 1470 1470 1468 1464 1463 1463 1465 1469 1467 1465 1466 1470 1476 1481 1486 1489 1487 1493 1496 1495 1510 1515 1500 1496 1496 1501 1516 1515 1503 1501 1499 1497 1499 1501 1502 1501 1499 1499 1499 1499 1499 1500
1501 1500 1498 1495 1493 1493 1493 1493 1493 1493 1493 1493 1494 1493 1496 1503 1509 1514 1502 1480 1480 1481 1472 1473 1473 1469 1472 1474 1476 1475 1474 1476 1472 1472 1477 1477 1479 1478 1477 1481 1482 1488 1494 1489 1484 1480 1475 1472 1466 1463 1462 1462 1468 1475 1473 1469 1468 1474 1480 1485 1497 1506 1506 1510 1512 1509 1514 1513 1502 1497 1496 1504 1516 1509 1499 1499 1497 1496 1496 1496 1498 1499 1498 1498 1498 1499 1500 1501
1499 1497 1495 1493 1491 1490 1491 1491 1491 1492 1492 1492 1494 1492 1497 1511 1512 1500 1490 1485 1484 1477 1469 1471 1469 1467 1472 1476 1476 1472 1472 1475 1471 1471 1474 1474 1479 1477 1474 1474 1474 1484 1492 1488 1489 1488 1482 1473 1466 1467 1467 1462 1467 1478 1481 1478 1476 1480 1483 1489 1502 1513 1521 1527 1523 1518 1517 1512 1505 1498 1497 1511 1518 1504 1496 1497 1495 1494 1494 1494 1496 1496 1496 1497 1497 1499 1500 1500
1497 1494 1492 1490 1489 1489 1488 1489 1489 1490 1492 1492 1493 1494 1502 1512 1504 1490 1488 1486 1478 1471 1469 1471 1470 1470 1471 1473 1473 1469 1473 1475 1468 1470 1474 1475 1481 1481 1475 1472 1471 1476 1482 1487 1490 1489 1491 1488 1475 1472 1471 1465 1466 1472 1476 1477 1479 1481 1479 1484 1495 1501 1512 1521 1517 1516 1518 1513 1507 1502 1505 1518 1519 1505 1495 1494 1493 1493 1494 1494 1496 1496 1496 1497 1498 1499 1499 1500
1495 1493 1490 1488 1488 1488 1487 1489 1488 1489 1492 1491 1493 1498 1504 1506 1497 1490 1488 1481 1475 1474 1471 1468 1469 1475 1475 1471 1467 1463 1468 1473 1468 1470 1475 1476 1480 1479 1474 1471 1469 1471 1479 1490 1489 1483 1490 1491 1474 1466 1465 1464 1467 1466 1464 1472 1482 1481 1475 1483 1491 1488 1493 1501 1501 1503 1509 1515 1517 1516 1515 1514 1508 1500 1494 1493 1494 1493 1494 1495 1496 1497 1497 1498 1499 1499 1499 1500
1494 1491 1490 1489 1489 1489 1488 1488 1488 1489 1491 1491 1495 1500 1500 1494 1489 1487 1483 1477 1477 1478 1476 1471 1469 1476 1481 1474 1469 1465 1463 1466 1468 1472 1475 1474 1473 1472 1469 1465 1462 1464 1472 1483 1484 1481 1489 1487 1470 1465 1465 1461 1465 1465 1461 1470 1482 1481 1480 1486 1483 1476 1481 1493 1498 1496 1502 1520 1527 1523 1521 1515 1508 1504 1497 1495 1497 1495 1495 1496 1495 1497 1496 1497 1498 1498 1499 1500
1492 1491 1490 1489 1489 1489 1489 1488 1488 1490 1490 1491 1497 1498 1493 1487 1483 1481 1479 1476 1476 1475 1481 1484 1475 1475 1483 1479 1474 1470 1465 1466 1469 1472 1475 1474 1472 1468 1464 1460 1455 1456 1461 1469 1475 1475 1482 1485 1472 1467 1471 1464 1459 1462 1461 1462 1470 1479 1486 1482 1473 1474 1479 1486 1499 1503 1510 1529 1531 1523 1525 1524 1520 1515 1503 1498 1500 1498 1497 1496 1495 1496 1496 1496 1497 1497 1499 1499
1492 1491 1490 1490 1490 1489 1489 1489 1489 1490 1491 1493 1498 1495 1490 1486 1481 1478 1477 1475 1475 1476 1483 1488 1478 1472 1479 1482 1479 1472 1469 1471 1471 1471 1473 1475 1471 1461 1458 1458 1453 1451 1453 1459 1468 1468 1472 1485 1478 1466 1471 1468 1458 1465 1471 1466 1463 1471 1477 1472 1474 1489 1491 1488 1499 1508 1519 1536 1536 1528 1527 1522 1518 1515 1506 1502 1502 1499 1498 1497 1496 1496 1496 1496 1496 1496 1498 1498
1492 1491 1490 1490 1490 1490 1489 1490 1490 1490 1492 1497 1501 1496 1488 1485 1480 1477 1477 1475 1476 1478 1481 1482 1476 1473 1475 1478 1479 1474 1471 1473 1473 1471 1472 1473 1469 1457 1452 1454 1452 1451 1450 1452 1462 1464 1466 1483 1486 1471 1465 1467 1466 1473 1483 1480 1469 1467 1471 1471 1476 1487 1490 1490 1494 1499 1513 1531 1535 1533 1531 1520 1509 1505 1503 1502 1500 1497 1498 1497 1496 1496 1495 1496 1496 1496 1497 1498
1492 1491 1490 1490 1491 1490 1490 1491 1490 1491 1494 1497 1498 1493 1487 1484 1480 1476 1476 1475 1474 1475 1477 1476 1474 1475 1473 1472 1475 1473 1470 1471 1471 1471 1470 1466 1464 1457 1449 1449 1452 1452 1449 1450 1457 1463 1466 1478 1487 1478 1467 1472 1479 1479 1481 1482 1478 1477 1480 1482 1483 1483 1483 1487 1491 1490 1499 1519 1531 1535 1534 1518 1502 1497 1498 1498 1496 1495 1496 1496 1496 1496 1495 1496 1496 1496 1497 1497
1493 1492 1491 1491 1491 1491 1490 1492 1492 1492 1494 1494 1492 1490 1486 1484 1480 1475 1474 1473 1471 1470 1470 1470 1471 1472 1470 1471 1473 1470 1470 1470 1469 1470 1468 1462 1462 1460 1450 1445 1448 1449 1451 1455 1458 1461 1468 1477 1484 1484 1479 1481 1483 1474 1470 1473 1475 1478 1481 1483 1485 1485 1487 1496 1503 1494 1490 1504 1519 1526 1528 1515 1498 1494 1494 1493 1494 1494 1493 1494 1495 1495 1495 1496 1496 1496 1497 1497
1494 1493 1492 1491 1492 1492 1491 1492 1492 1492 1493 1492 1490 1487 1485 1482 1479 1475 1472 1470 1469 1466 1464 1465 1468 1468 1467 1469 1470 1469 1470 1471 1469 1469 1466 1462 1459 1456 1446 1442 1444 1445 1450 1460 1461 1457 1462 1472 1482 1487 1484 1481 1477 1469 1466 1467 1468 1472 1476 1477 1480 1483 1487 1499 1508 1500 1492 1501 1507 1512 1521 1513 1497 1492 1493 1492 1493 1493 1493 1494 1495 1496 1496 1497 1497 1497 1497 1498
1494 1493 1490 1491 1491 1491 1492 1493 1492 1492 1491 1488 1486 1484 1482 1481 1478 1476 1472 1470 1469 1466 1465 1465 1465 1466 1466 1465 1467 1469 1470 1470 1468 1466 1464 1461 1455 1448 1443 1442 1443 1444 1450 1460 1462 1456 1460 1473 1483 1487 1483 1476 1471 1466 1465 1465 1468 1475 1477 1474 1477 1481 1482 1488 1495 1493 1497 1504 1505 1512 1524 1513 1495 1491 1493 1492 1493 1493 1494 1494 1495 1496 1497 1497 1498 1498 1497 1498
1494 1491 1489 1489 1490 1489 1492 1493 1492 1492 1489 1486 1484 1482 1480 1478 1476 1474 1472 1470 1468 1467 1468 1467 1464 1465 1465 1463 1466 1468 1469 1471 1468 1463 1462 1462 1455 1447 1444 1443 1444 1446 1449 1455 1457 1458 1467 1477 1483 1492 1497 1493 1487 1484 1480 1475 1475 1479 1480 1476 1476 1478 1479 1483 1487 1490 1499 1505 1502 1512 1522 1510 1494 1492 1493 1492 1493 1494 1495 1495 1495 1496 1496 1497 1498 1497 1497 1498
1494 1491 1488 1488 1488 1488 1490 1490 1490 1491 1490 1488 1486 1482 1479 1476 1471 1469 1468 1467 1465 1464 1466 1466 1464 1463 1463 1463 1466 1465 1465 1468 1469 1464 1461 1461 1455 1448 1445 1445 1445 1444 1445 1447 1448 1452 1466 1475 1478 1491 1505 1509 1507 1503 1494 1486 1481 1481 1480 1478 1478 1478 1479 1483 1489 1495 1503 1505 1500 1505 1511 1505 1497 1494 1494 1494 1494 1494 1495 1495 1496 1496 1496 1497 1497 1497 1498 1497
1497 1495 1492 1489 1488 1488 1490 1489 1489 1491 1491 1491 1489 1482 1479 1476 1470 1465 1464 1463 1462 1460 1461 1462 1462 1463 1464 1465 1468 1468 1464 1464 1466 1466 1464 1463 1458 1450 1446 1446 1446 1444 1443 1445 1445 1449 1463 1471 1472 1479 1489 1494 1495 1490 1483 1481 1484 1484 1483 1481 1480 1480 1478 1482 1491 1498 1500 1501 1502 1500 1499 1501 1500 1497 1496 1496 1495 1495 1495 1494 1495 1495 1495 1496 1496 1497 1498 1497
1500 1499 1498 1496 1493 1491 1491 1489 1490 1491 1490 1492 1491 1483 1478 1477 1472 1467 1464 1463 1462 1460 1460 1460 1461 1464 1467 1467 1469 1471 1468 1465 1465 1466 1466 1465 1460 1453 1447 1446 1446 1446 1446 1445 1445 1451 1464 1472 1472 1473 1475 1477 1479 1478 1475 1477 1482 1483 1483 1482 1481 1480 1479 1481 1489 1493 1493 1500 1506 1499 1494 1498 1499 1495 1495 1496 1495 1495 1494 1493 1494 1494 1494 1495 1496 1497 1497 1497
1502 1501 1501 1501 1500 1498 1496 1493 1492 1491 1489 1489 1488 1483 1479 1478 1475 1473 1468 1464 1463 1462 1463 1464 1463 1463 1464 1464 1467 1470 1468 1467 1468 1468 1468 1467 1463 1458 1453 1448 1447 1448 1448 1448 1446 1450 1463 1472 1471 1471 1473 1473 1475 1475 1475 1477 1480 1480 1480 1481 1481 1480 1479 1481 1485 1486 1486 1494 1500 1496 1494 1497 1495 1493 1494 1492 1491 1492 1491 1491 1492 1492 1494 1495 1495 1496 1496 1497
1503 1502 1501 1500 1501 1501 1499 1497 1494 1492 1489 1488 1486 1482 1480 1478 1477 1475 1470 1467 1466 1464 1465 1470 1468 1463 1460 1459 1463 1468 1469 1470 1473 1471 1469 1468 1466 1464 1462 1458 1454 1451 1450 1451 1449 1449 1460 1470 1470 1470 1475 1475 1475 1475 1474 1477 1480 1479 1478 1479 1479 1479 1477 1478 1481 1481 1481 1486 1489 1488 1490 1491 1488 1489 1489 1487 1488 1489 1489 1490 1491 1492 1493 1494 1494 1495 1495 1496
1504 1504 1502 1501 1500 1499 1498 1496 1494 1493 1490 1488 1487 1482 1479 1479 1479 1476 1472 1470 1471 1468 1466 1471 1470 1463 1460 1459 1461 1467 1468 1467 1471 1470 1467 1467 1467 1465 1466 1464 1460 1456 1453 1455 1454 1451 1458 1470 1469 1469 1476 1479 1475 1472 1473 1476 1480 1480 1479 1477 1477 1478 1478 1477 1478 1478 1480 1486 1488 1486 1489 1489 1484 1482 1483 1485 1488 1488 1489 1491 1491 1491 1492 1492 1493 1494 1494 1495
1505 1505 1504 1503 1501 1498 1497 1495 1494 1494 1492 1488 1487 1484 1481 1480 1479 1478 1473 1469 1470 1470 1469 1471 1469 1464 1462 1462 1463 1466 1464 1462 1464 1463 1461 1463 1464 1464 1464 1462 1461 1462 1460 1458 1457 1454 1458 1468 1469 1470 1481 1483 1476 1473 1475 1474 1477 1481 1481 1478 1477 1479 1479 1477 1476 1476 1478 1484 1490 1491 1492 1490 1483 1481 1484 1486 1487 1488 1489 1489 1490 1491 1492 1492 1493 1493 1494 1494
1504 1504 1503 1504 1502 1498 1497 1496 1494 1495 1493 1488 1487 1485 1483 1481 1477 1477 1477 1471 1468 1469 1468 1467 1468 1467 1467 1468 1467 1466 1464 1461 1460 1459 1458 1459 1459 1459 1460 1458 1458 1462 1462 1460 1459 1458 1460 1466 1469 1473 1482 1483 1477 1475 1475 1477 1486 1490 1482 1476 1476 1477 1477 1476 1475 1474 1474 1477 1485 1489 1488 1485 1481 1481 1485 1486 1487 1488 1488 1488 1489 1490 1490 1492 1492 1492 1493 1494